{"data":{"norad_id":41747,"epoch":"2026-09-19T03:36:44.616960Z","epoch_age_seconds":134747,"freshness":"FRESH","line1":"1 41747U 16053A   26262.15051640  .00000000  00000+0  00000+0 0  9996","line2":"2 41747   0.0132 139.6343 0001783 217.0110 124.1087  1.00269607 36903","mean_motion":1.00269607,"eccentricity":0.0001783,"inclination_deg":0.0132,"raan_deg":139.6343,"arg_perigee_deg":217.011,"mean_anomaly_deg":124.1087,"bstar":0,"rev_number":3690,"period_min":1436.1280981185,"perigee_km":35779.687464131,"apogee_km":35794.723625282,"semimajor_km":42165.342544706,"source":"CELESTRAK","updated_at":"2026-09-20T09:00:35.522675Z"}}